{"data":{"norad_id":40946,"epoch":"2026-09-20T00:59:12.702336Z","epoch_age_seconds":61641,"freshness":"FRESH","line1":"1 40946U 15056A   26263.04111924 -.00000045  00000+0  00000+0 0  9999","line2":"2 40946   3.2738  17.3705 0003286 184.5578  58.7231  1.00272250 40232","mean_motion":1.0027225,"eccentricity":0.0003286,"inclination_deg":3.2738,"raan_deg":17.3705,"arg_perigee_deg":184.5578,"mean_anomaly_deg":58.7231,"bstar":0,"rev_number":4023,"period_min":1436.0902443099,"perigee_km":35772.609317227,"apogee_km":35800.319893402,"semimajor_km":42164.601605314,"source":"CELESTRAK","updated_at":"2026-09-20T09:00:35.220174Z"}}